Location: Arrodets-la-Barthe
(43.0306°N, 0.2829°E)
Time: 01:26:33
(UTC+00:00)

NOAA 19 - Pass Details

Date: 01 April 2023
Orbit: 840 x 859 km, 99.1° (Epoch: 29 May)

Event Time Altitude Azimuth Distance (km) Brightness Sun altitude
Exits shadow 20:07:13 - 177° (S) 2,779 7.6 -18.7°
Reaches altitude 10° 20:08:02 10° 179° (S) 2,464 7.4 -18.8°
Maximum altitude 20:13:25 59° 258° (WSW) 974 5.7 -19.7°
Drops below altitude 10° 20:18:49 10° 338° (NNW) 2,471 8.3 -20.6°
Sets 20:21:14 0° 342° (NNW) 3,408 9.1 -21.0°
